(°C)
(°C)
-5°
-6°
-6°
-5°
-6°
-6°
-5°
S
S
S
S
S
S
S
(km/h)
17-35
17-35
18-36
18-37
19-38
19-38
19-39
(mm)
0
0
0
0
0
0
0
(%)
0
0
0
0
11
0
0

Sonnenhöhe

/ -38.5°
sun-icon
UV 1
08:24
18:02
Letztes Viertel (277°)
00:00
16:23

METAR für 55.03°N 82.6°O (UNNT)

Zeit Bedingungen Temperatur/
Taupunkt
Wind Sichtweite Wetter Wolken Druck Änderung Roh
VFR 1°C / -8°C 190º 10kt >10km - Clouds and Visibility OK 1020 No Significant change. Runway 25: Clear and dry, 51-100% contamination with <1mm, friction coefficient 0.70. Runway 16: Clear and dry, 51-100% contamination with <1mm, friction coefficient 0.70. UNNT 282030Z 19005MPS CAVOK 01/M08 Q1020 R25/090070 R16/090070 NOSIG RMK QFE755/1007
VFR 1°C / -8°C 180º 12kt >10km - Clouds and Visibility OK 1020 No Significant change. Runway 25: Clear and dry, 51-100% contamination with <1mm, friction coefficient 0.70. Runway 16: Clear and dry, 51-100% contamination with <1mm, friction coefficient 0.70. UNNT 282000Z 18006MPS CAVOK 01/M08 Q1020 R25/090070 R16/090070 NOSIG RMK QFE755/1007
VFR 1°C / -8°C 180º 10kt >10km - Clouds and Visibility OK 1020 No Significant change. Runway 25: Clear and dry, 51-100% contamination with <1mm, friction coefficient 0.70. Runway 16: Clear and dry, 51-100% contamination with <1mm, friction coefficient 0.70. UNNT 281930Z 18005MPS CAVOK 01/M08 Q1020 R25/090070 R16/090070 NOSIG RMK QFE755/1007
VFR 1°C / -8°C 180º 10kt >10km - Clouds and Visibility OK 1021 No Significant change. Runway 25: Clear and dry, 51-100% contamination with <1mm, friction coefficient 0.70. Runway 16: Clear and dry, 51-100% contamination with <1mm, friction coefficient 0.70. UNNT 281900Z 18005MPS CAVOK 01/M08 Q1021 R25/090070 R16/090070 NOSIG RMK QFE756/1008
VFR 0°C / -8°C 190º 8kt >10km - Clouds and Visibility OK 1021 No Significant change. Runway 25: Clear and dry, 51-100% contamination with <1mm, friction coefficient 0.70. Runway 16: Clear and dry, 51-100% contamination with <1mm, friction coefficient 0.70. UNNT 281830Z 19004MPS CAVOK 00/M08 Q1021 R25/090070 R16/090070 NOSIG RMK QFE756/1008
VFR 0°C / -8°C 180º 8kt >10km - Clouds and Visibility OK 1022 No Significant change. Runway 25: Clear and dry, 51-100% contamination with <1mm, friction coefficient 0.70. Runway 16: Clear and dry, 51-100% contamination with <1mm, friction coefficient 0.70. UNNT 281800Z 18004MPS CAVOK 00/M08 Q1022 R25/090070 R16/090070 NOSIG RMK QFE756/1008
VFR 0°C / -8°C 170º 8kt >10km - Clouds and Visibility OK 1022 No Significant change. Runway 25: Clear and dry, 51-100% contamination with <1mm, friction coefficient 0.70. Runway 16: Clear and dry, 51-100% contamination with <1mm, friction coefficient 0.70. UNNT 281730Z 17004MPS CAVOK 00/M08 Q1022 R25/090070 R16/090070 NOSIG RMK QFE756/1009
VFR 0°C / -8°C 170º 8kt >10km - Clouds and Visibility OK 1022 No Significant change. Runway 25: Clear and dry, 51-100% contamination with <1mm, friction coefficient 0.70. Runway 16: Clear and dry, 51-100% contamination with <1mm, friction coefficient 0.70. UNNT 281700Z 17004MPS CAVOK 00/M08 Q1022 R25/090070 R16/090070 NOSIG RMK QFE757/1009
VFR 0°C / -7°C 170º 8kt >10km - Clouds and Visibility OK 1022 No Significant change. Runway 25: Clear and dry, 51-100% contamination with <1mm, friction coefficient 0.70. Runway 16: Clear and dry, 51-100% contamination with <1mm, friction coefficient 0.70. UNNT 281630Z 17004MPS CAVOK M00/M07 Q1022 R25/090070 R16/090070 NOSIG RMK QFE757/1009
VFR 0°C / -7°C 170º 8kt >10km - Clouds and Visibility OK 1023 No Significant change. Runway 25: Clear and dry, 51-100% contamination with <1mm, friction coefficient 0.70. Runway 16: Clear and dry, 51-100% contamination with <1mm, friction coefficient 0.70. UNNT 281600Z 17004MPS CAVOK M00/M07 Q1023 R25/090070 R16/090070 NOSIG RMK QFE757/1009
VFR 0°C / -7°C 180º 6kt >10km - Clouds and Visibility OK 1023 No Significant change. Runway 25: Clear and dry, 51-100% contamination with <1mm, friction coefficient 0.70. Runway 16: Clear and dry, 51-100% contamination with <1mm, friction coefficient 0.70. UNNT 281530Z 18003MPS CAVOK M00/M07 Q1023 R25/090070 R16/090070 NOSIG RMK QFE757/1010
VFR 0°C / -7°C 170º 8kt >10km - Clouds and Visibility OK 1023 No Significant change. Runway 07: Clear and dry, 51-100% contamination with <1mm, friction coefficient 0.70. Runway 16: Clear and dry, 51-100% contamination with <1mm, friction coefficient 0.70. UNNT 281500Z 17004MPS CAVOK M00/M07 Q1023 R07/090070 R16/090070 NOSIG RMK QFE757/1010
VFR 0°C / -8°C 170º 8kt >10km - Clouds and Visibility OK 1024 No Significant change. Runway 07: Clear and dry, 51-100% contamination with <1mm, friction coefficient 0.70. Runway 16: Clear and dry, 51-100% contamination with <1mm, friction coefficient 0.70. UNNT 281430Z 17004MPS CAVOK M00/M08 Q1024 R07/090070 R16/090070 NOSIG RMK QFE758/1010
VFR 0°C / -8°C 170º 8kt >10km - Clouds and Visibility OK 1024 No Significant change. Runway 07: Clear and dry, 51-100% contamination with <1mm, friction coefficient 0.70. Runway 16: Clear and dry, 51-100% contamination with <1mm, friction coefficient 0.70. UNNT 281400Z 17004MPS CAVOK 00/M08 Q1024 R07/090070 R16/090070 NOSIG RMK QFE758/1011
VFR 0°C / -8°C 180º 8kt >10km - Clouds and Visibility OK 1024 No Significant change. Runway 07: Clear and dry, 51-100% contamination with <1mm, friction coefficient 0.70. Runway 16: Clear and dry, 51-100% contamination with <1mm, friction coefficient 0.70. UNNT 281330Z 18004MPS CAVOK 00/M08 Q1024 R07/090070 R16/090070 NOSIG RMK QFE758/1011
VFR 0°C / -9°C 170º 8kt >10km - Clouds and Visibility OK 1024 No Significant change. Runway 07: Clear and dry, 51-100% contamination with <1mm, friction coefficient 0.70. Runway 16: deposit not reported, . UNNT 281300Z 17004MPS CAVOK 00/M09 Q1024 R07/090070 R16/////// NOSIG RMK QFE758/1011
VFR 1°C / -9°C 180º 8kt >10km - Scattered Clouds 4800ft 1024 No Significant change. Runway 25: Clear and dry, 51-100% contamination with <1mm, friction coefficient 0.70. Runway 16: deposit not reported, . UNNT 281230Z 18004MPS 9999 SCT048 01/M09 Q1024 R25/090070 R16/////// NOSIG RMK QFE758/1011
VFR 1°C / -9°C 180º 6kt >10km - Scattered Clouds 4800ft 1024 No Significant change. Runway 25: Clear and dry, 51-100% contamination with <1mm, friction coefficient 0.70. Runway 16: deposit not reported, . UNNT 281200Z 18003MPS 9999 SCT048 01/M09 Q1024 R25/090070 R16/////// NOSIG RMK QFE758/1011
VFR 1°C / -9°C 180º 6kt >10km - Broken Clouds 4800ft 1025 No Significant change. Runway 25: Clear and dry, 51-100% contamination with <1mm, friction coefficient 0.70. Runway 16: deposit not reported, . UNNT 281130Z 18003MPS 9999 BKN048 01/M09 Q1025 R25/090070 R16/////// NOSIG RMK QFE758/1011
VFR 2°C / -8°C 180º 6kt >10km - Broken Clouds 4900ft 1025 No Significant change. Runway 25: Clear and dry, 51-100% contamination with <1mm, friction coefficient 0.70. Runway 16: deposit not reported, . UNNT 281100Z 18003MPS 9999 BKN049 02/M08 Q1025 R25/090070 R16/////// NOSIG RMK QFE758/1011
VFR 3°C / -9°C 180º 10kt >10km - Broken Clouds 4700ft 1025 No Significant change. Runway 25: Clear and dry, 51-100% contamination with <1mm, friction coefficient 0.70. Runway 16: deposit not reported, . UNNT 281030Z 18005MPS 9999 BKN047 03/M09 Q1025 R25/090070 R16/////// NOSIG RMK QFE758/1011
VFR 3°C / -8°C 180º 8kt >10km - Broken Clouds 4700ft 1025 No Significant change. Runway 25: Clear and dry, 51-100% contamination with <1mm, friction coefficient 0.70. Runway 16: deposit not reported, . UNNT 281000Z 18004MPS 9999 BKN047 03/M08 Q1025 R25/090070 R16/////// NOSIG RMK QFE759/1012
VFR 3°C / -8°C 180º 8kt >10km - Broken Clouds 4700ft 1025 No Significant change. Runway 25: Clear and dry, 51-100% contamination with <1mm, friction coefficient 0.70. Runway 16: deposit not reported, . UNNT 280930Z 18004MPS 9999 BKN047 03/M08 Q1025 R25/090070 R16/////// NOSIG RMK QFE759/1012
VFR 2°C / -7°C 180º 8kt >10km - Broken Clouds 4700ft 1026 No Significant change. Runway 25: Clear and dry, 51-100% contamination with <1mm, friction coefficient 0.70. Runway 16: deposit not reported, . UNNT 280900Z 18004MPS 9999 BKN047 02/M07 Q1026 R25/090070 R16/////// NOSIG RMK QFE759/1012

VFR

1°C / -8°C

[Mehr]
Wind 190º 10kt
Sichtweite >10km
Wetter -
Wolken Clouds and Visibility OK
Druck 1020
Änderung No Significant change. Runway 25: Clear and dry, 51-100% contamination with <1mm, friction coefficient 0.70. Runway 16: Clear and dry, 51-100% contamination with <1mm, friction coefficient 0.70.
Roh UNNT 282030Z 19005MPS CAVOK 01/M08 Q1020 R25/090070 R16/090070 NOSIG RMK QFE755/1007

VFR

1°C / -8°C

[Mehr]
Wind 180º 12kt
Sichtweite >10km
Wetter -
Wolken Clouds and Visibility OK
Druck 1020
Änderung No Significant change. Runway 25: Clear and dry, 51-100% contamination with <1mm, friction coefficient 0.70. Runway 16: Clear and dry, 51-100% contamination with <1mm, friction coefficient 0.70.
Roh UNNT 282000Z 18006MPS CAVOK 01/M08 Q1020 R25/090070 R16/090070 NOSIG RMK QFE755/1007

VFR

1°C / -8°C

[Mehr]
Wind 180º 10kt
Sichtweite >10km
Wetter -
Wolken Clouds and Visibility OK
Druck 1020
Änderung No Significant change. Runway 25: Clear and dry, 51-100% contamination with <1mm, friction coefficient 0.70. Runway 16: Clear and dry, 51-100% contamination with <1mm, friction coefficient 0.70.
Roh UNNT 281930Z 18005MPS CAVOK 01/M08 Q1020 R25/090070 R16/090070 NOSIG RMK QFE755/1007

VFR

1°C / -8°C

[Mehr]
Wind 180º 10kt
Sichtweite >10km
Wetter -
Wolken Clouds and Visibility OK
Druck 1021
Änderung No Significant change. Runway 25: Clear and dry, 51-100% contamination with <1mm, friction coefficient 0.70. Runway 16: Clear and dry, 51-100% contamination with <1mm, friction coefficient 0.70.
Roh UNNT 281900Z 18005MPS CAVOK 01/M08 Q1021 R25/090070 R16/090070 NOSIG RMK QFE756/1008

VFR

0°C / -8°C

[Mehr]
Wind 190º 8kt
Sichtweite >10km
Wetter -
Wolken Clouds and Visibility OK
Druck 1021
Änderung No Significant change. Runway 25: Clear and dry, 51-100% contamination with <1mm, friction coefficient 0.70. Runway 16: Clear and dry, 51-100% contamination with <1mm, friction coefficient 0.70.
Roh UNNT 281830Z 19004MPS CAVOK 00/M08 Q1021 R25/090070 R16/090070 NOSIG RMK QFE756/1008

VFR

0°C / -8°C

[Mehr]
Wind 180º 8kt
Sichtweite >10km
Wetter -
Wolken Clouds and Visibility OK
Druck 1022
Änderung No Significant change. Runway 25: Clear and dry, 51-100% contamination with <1mm, friction coefficient 0.70. Runway 16: Clear and dry, 51-100% contamination with <1mm, friction coefficient 0.70.
Roh UNNT 281800Z 18004MPS CAVOK 00/M08 Q1022 R25/090070 R16/090070 NOSIG RMK QFE756/1008

VFR

0°C / -8°C

[Mehr]
Wind 170º 8kt
Sichtweite >10km
Wetter -
Wolken Clouds and Visibility OK
Druck 1022
Änderung No Significant change. Runway 25: Clear and dry, 51-100% contamination with <1mm, friction coefficient 0.70. Runway 16: Clear and dry, 51-100% contamination with <1mm, friction coefficient 0.70.
Roh UNNT 281730Z 17004MPS CAVOK 00/M08 Q1022 R25/090070 R16/090070 NOSIG RMK QFE756/1009

VFR

0°C / -8°C

[Mehr]
Wind 170º 8kt
Sichtweite >10km
Wetter -
Wolken Clouds and Visibility OK
Druck 1022
Änderung No Significant change. Runway 25: Clear and dry, 51-100% contamination with <1mm, friction coefficient 0.70. Runway 16: Clear and dry, 51-100% contamination with <1mm, friction coefficient 0.70.
Roh UNNT 281700Z 17004MPS CAVOK 00/M08 Q1022 R25/090070 R16/090070 NOSIG RMK QFE757/1009

VFR

0°C / -7°C

[Mehr]
Wind 170º 8kt
Sichtweite >10km
Wetter -
Wolken Clouds and Visibility OK
Druck 1022
Änderung No Significant change. Runway 25: Clear and dry, 51-100% contamination with <1mm, friction coefficient 0.70. Runway 16: Clear and dry, 51-100% contamination with <1mm, friction coefficient 0.70.
Roh UNNT 281630Z 17004MPS CAVOK M00/M07 Q1022 R25/090070 R16/090070 NOSIG RMK QFE757/1009

VFR

0°C / -7°C

[Mehr]
Wind 170º 8kt
Sichtweite >10km
Wetter -
Wolken Clouds and Visibility OK
Druck 1023
Änderung No Significant change. Runway 25: Clear and dry, 51-100% contamination with <1mm, friction coefficient 0.70. Runway 16: Clear and dry, 51-100% contamination with <1mm, friction coefficient 0.70.
Roh UNNT 281600Z 17004MPS CAVOK M00/M07 Q1023 R25/090070 R16/090070 NOSIG RMK QFE757/1009

VFR

0°C / -7°C

[Mehr]
Wind 180º 6kt
Sichtweite >10km
Wetter -
Wolken Clouds and Visibility OK
Druck 1023
Änderung No Significant change. Runway 25: Clear and dry, 51-100% contamination with <1mm, friction coefficient 0.70. Runway 16: Clear and dry, 51-100% contamination with <1mm, friction coefficient 0.70.
Roh UNNT 281530Z 18003MPS CAVOK M00/M07 Q1023 R25/090070 R16/090070 NOSIG RMK QFE757/1010

VFR

0°C / -7°C

[Mehr]
Wind 170º 8kt
Sichtweite >10km
Wetter -
Wolken Clouds and Visibility OK
Druck 1023
Änderung No Significant change. Runway 07: Clear and dry, 51-100% contamination with <1mm, friction coefficient 0.70. Runway 16: Clear and dry, 51-100% contamination with <1mm, friction coefficient 0.70.
Roh UNNT 281500Z 17004MPS CAVOK M00/M07 Q1023 R07/090070 R16/090070 NOSIG RMK QFE757/1010

VFR

0°C / -8°C

[Mehr]
Wind 170º 8kt
Sichtweite >10km
Wetter -
Wolken Clouds and Visibility OK
Druck 1024
Änderung No Significant change. Runway 07: Clear and dry, 51-100% contamination with <1mm, friction coefficient 0.70. Runway 16: Clear and dry, 51-100% contamination with <1mm, friction coefficient 0.70.
Roh UNNT 281430Z 17004MPS CAVOK M00/M08 Q1024 R07/090070 R16/090070 NOSIG RMK QFE758/1010

VFR

0°C / -8°C

[Mehr]
Wind 170º 8kt
Sichtweite >10km
Wetter -
Wolken Clouds and Visibility OK
Druck 1024
Änderung No Significant change. Runway 07: Clear and dry, 51-100% contamination with <1mm, friction coefficient 0.70. Runway 16: Clear and dry, 51-100% contamination with <1mm, friction coefficient 0.70.
Roh UNNT 281400Z 17004MPS CAVOK 00/M08 Q1024 R07/090070 R16/090070 NOSIG RMK QFE758/1011

VFR

0°C / -8°C

[Mehr]
Wind 180º 8kt
Sichtweite >10km
Wetter -
Wolken Clouds and Visibility OK
Druck 1024
Änderung No Significant change. Runway 07: Clear and dry, 51-100% contamination with <1mm, friction coefficient 0.70. Runway 16: Clear and dry, 51-100% contamination with <1mm, friction coefficient 0.70.
Roh UNNT 281330Z 18004MPS CAVOK 00/M08 Q1024 R07/090070 R16/090070 NOSIG RMK QFE758/1011

VFR

0°C / -9°C

[Mehr]
Wind 170º 8kt
Sichtweite >10km
Wetter -
Wolken Clouds and Visibility OK
Druck 1024
Änderung No Significant change. Runway 07: Clear and dry, 51-100% contamination with <1mm, friction coefficient 0.70. Runway 16: deposit not reported, .
Roh UNNT 281300Z 17004MPS CAVOK 00/M09 Q1024 R07/090070 R16/////// NOSIG RMK QFE758/1011

VFR

1°C / -9°C

[Mehr]
Wind 180º 8kt
Sichtweite >10km
Wetter -
Wolken Scattered Clouds 4800ft
Druck 1024
Änderung No Significant change. Runway 25: Clear and dry, 51-100% contamination with <1mm, friction coefficient 0.70. Runway 16: deposit not reported, .
Roh UNNT 281230Z 18004MPS 9999 SCT048 01/M09 Q1024 R25/090070 R16/////// NOSIG RMK QFE758/1011

VFR

1°C / -9°C

[Mehr]
Wind 180º 6kt
Sichtweite >10km
Wetter -
Wolken Scattered Clouds 4800ft
Druck 1024
Änderung No Significant change. Runway 25: Clear and dry, 51-100% contamination with <1mm, friction coefficient 0.70. Runway 16: deposit not reported, .
Roh UNNT 281200Z 18003MPS 9999 SCT048 01/M09 Q1024 R25/090070 R16/////// NOSIG RMK QFE758/1011

VFR

1°C / -9°C

[Mehr]
Wind 180º 6kt
Sichtweite >10km
Wetter -
Wolken Broken Clouds 4800ft
Druck 1025
Änderung No Significant change. Runway 25: Clear and dry, 51-100% contamination with <1mm, friction coefficient 0.70. Runway 16: deposit not reported, .
Roh UNNT 281130Z 18003MPS 9999 BKN048 01/M09 Q1025 R25/090070 R16/////// NOSIG RMK QFE758/1011

VFR

2°C / -8°C

[Mehr]
Wind 180º 6kt
Sichtweite >10km
Wetter -
Wolken Broken Clouds 4900ft
Druck 1025
Änderung No Significant change. Runway 25: Clear and dry, 51-100% contamination with <1mm, friction coefficient 0.70. Runway 16: deposit not reported, .
Roh UNNT 281100Z 18003MPS 9999 BKN049 02/M08 Q1025 R25/090070 R16/////// NOSIG RMK QFE758/1011

VFR

3°C / -9°C

[Mehr]
Wind 180º 10kt
Sichtweite >10km
Wetter -
Wolken Broken Clouds 4700ft
Druck 1025
Änderung No Significant change. Runway 25: Clear and dry, 51-100% contamination with <1mm, friction coefficient 0.70. Runway 16: deposit not reported, .
Roh UNNT 281030Z 18005MPS 9999 BKN047 03/M09 Q1025 R25/090070 R16/////// NOSIG RMK QFE758/1011

VFR

3°C / -8°C

[Mehr]
Wind 180º 8kt
Sichtweite >10km
Wetter -
Wolken Broken Clouds 4700ft
Druck 1025
Änderung No Significant change. Runway 25: Clear and dry, 51-100% contamination with <1mm, friction coefficient 0.70. Runway 16: deposit not reported, .
Roh UNNT 281000Z 18004MPS 9999 BKN047 03/M08 Q1025 R25/090070 R16/////// NOSIG RMK QFE759/1012

VFR

3°C / -8°C

[Mehr]
Wind 180º 8kt
Sichtweite >10km
Wetter -
Wolken Broken Clouds 4700ft
Druck 1025
Änderung No Significant change. Runway 25: Clear and dry, 51-100% contamination with <1mm, friction coefficient 0.70. Runway 16: deposit not reported, .
Roh UNNT 280930Z 18004MPS 9999 BKN047 03/M08 Q1025 R25/090070 R16/////// NOSIG RMK QFE759/1012

VFR

2°C / -7°C

[Mehr]
Wind 180º 8kt
Sichtweite >10km
Wetter -
Wolken Broken Clouds 4700ft
Druck 1026
Änderung No Significant change. Runway 25: Clear and dry, 51-100% contamination with <1mm, friction coefficient 0.70. Runway 16: deposit not reported, .
Roh UNNT 280900Z 18004MPS 9999 BKN047 02/M07 Q1026 R25/090070 R16/////// NOSIG RMK QFE759/1012

TAF für 55.03°N 82.6°O (UNNT)

From till


From till Wind 170º 10kt. Gust 19kt. Visibility 10km or more. Nil Significant Cloud.
Temporarly from till Wind 220º 16kt. Gust 29kt.
Becoming from till Wind 210º 16kt. Gust 29kt. Visibility 10km or more. Nil Significant Cloud.

Roh: TAF UNNT 282000Z 2821/2921 17005G10MPS CAVOK TEMPO 2821/2902 22008G15MPS BECMG 2902/2905 21008G15MPS

Aktuelle Satelliten- und Regenbilder für 55.03°N 82.6°O

Die Standortmarkierung ist platziert auf 55.03°N 82.6°O. [Mehr]

Das Echtzeit-Satellitenbild kombiniert sichtbares Licht während des Tages mit Infrarotstrahlung während der Nacht. Nachts ist das Bild nicht dunkel, da Infrarotstrahlung Temperaturunterschiede erkennen kann. Leider sind niedrige Wolken und Nebel nur schwer von den Bodentemperaturen zu unterscheiden und können daher nachts fast unsichtbar sein. Meteosat-Satellitenbilder für Europa werden alle 5 Minuten in Echtzeit aktualisiert. Die Bilder GOES-16 / GOES-17 (Nord- und Südamerika) und Himawari (Asien) werden alle 10 Minuten aktualisiert.

Copyright 2021 EUMETSAT / meteoblue. / Copyright 2021 meteoblue

Radar- und Niederschlags-Nowcast für 55.03°N 82.6°O

Nieselregen
Leicht
Moderat
Stark
Sehr schwer
Hagel

Die Ortsmarkierung zeigt auf 55.03°N 82.6°O. Diese Animation zeigt das Niederschlagsradar der letzten Stunde, sowie eine 1h Vorhersage. Nieselregen und leichter Schneefall können für das Radar unsichtbar sein. Die Niederschlagsintensität ist farbcodiert von Hellblau bis Orange.